QFA1427 YSSY-YSCB

Flight info

Callsign QFA1427
Flight time 0h 49m
Altitude 22000
Route WOL H65 LEEECE
Aircraft B738/M-SDE2E3FGHIRWXY/LB1

Departure

Time 2026-05-07 04:03
Airport Sydney Kingsford Smith International Airport (YSSY)

Arrival

Time 2026-05-07 04:52
Airport Canberra Airport (YSCB)
Time Latitude Longitude Altitude Speed Heading
2026-05-07 03:41 -33.93557 151.17999 20 ft 0 kts 279°
2026-05-07 03:55 -33.93558 151.18005 20 ft 2 kts 278°
2026-05-07 03:55 -33.93559 151.18022 21 ft 2 kts 277°
2026-05-07 03:55 -33.93562 151.18041 21 ft 2 kts 278°
2026-05-07 03:55 -33.93563 151.18059 21 ft 1 kts 278°
2026-05-07 03:56 -33.93564 151.18065 22 ft 0 kts 278°
2026-05-07 03:58 -33.93578 151.18056 21 ft 5 kts 188°
2026-05-07 03:59 -33.93638 151.18054 20 ft 10 kts 179°
2026-05-07 03:59 -33.93718 151.18068 18 ft 12 kts 166°
2026-05-07 03:59 -33.93751 151.18153 19 ft 14 kts 75°
2026-05-07 03:59 -33.93724 151.18269 23 ft 14 kts 75°
2026-05-07 04:00 -33.93695 151.18391 26 ft 16 kts 74°
2026-05-07 04:00 -33.93663 151.18526 28 ft 17 kts 74°
2026-05-07 04:00 -33.93628 151.18677 28 ft 19 kts 74°
2026-05-07 04:00 -33.93594 151.18834 28 ft 18 kts 85°
2026-05-07 04:01 -33.93644 151.18942 27 ft 6 kts 155°
2026-05-07 04:01 -33.93646 151.18942 27 ft 0 kts 156°
2026-05-07 04:01 -33.93658 151.18948 26 ft 5 kts 157°
2026-05-07 04:01 -33.93734 151.18977 25 ft 12 kts 166°
2026-05-07 04:02 -33.93769 151.18930 26 ft 3 kts 255°
2026-05-07 04:02 -33.93772 151.18918 26 ft 10 kts 255°
2026-05-07 04:02 -33.93857 151.18553 27 ft 77 kts 255°
2026-05-07 04:02 -33.94062 151.17686 11 ft 133 kts 255°
2026-05-07 04:03 -33.94317 151.16573 501 ft 136 kts 255°
2026-05-07 04:03 -33.94605 151.15477 1034 ft 143 kts 251°
2026-05-07 04:03 -33.94925 151.14300 1490 ft 158 kts 252°
2026-05-07 04:03 -33.95254 151.12990 2011 ft 170 kts 252°
2026-05-07 04:04 -33.95599 151.11572 2551 ft 182 kts 252°
2026-05-07 04:04 -33.95921 151.10057 3055 ft 195 kts 256°
2026-05-07 04:04 -33.96474 151.08550 3557 ft 208 kts 230°
2026-05-07 04:04 -33.97762 151.07643 4118 ft 227 kts 202°
2026-05-07 04:05 -33.99331 151.07120 4648 ft 240 kts 201°
2026-05-07 04:05 -34.00938 151.06477 5326 ft 246 kts 205°
2026-05-07 04:05 -34.02532 151.05724 6125 ft 248 kts 206°
2026-05-07 04:05 -34.04101 151.04939 6952 ft 249 kts 206°
2026-05-07 04:06 -34.05712 151.04128 7774 ft 252 kts 206°
2026-05-07 04:06 -34.07326 151.03320 8603 ft 254 kts 206°
2026-05-07 04:06 -34.08958 151.02508 9392 ft 259 kts 206°
2026-05-07 04:06 -34.10622 151.01683 10265 ft 260 kts 206°
2026-05-07 04:07 -34.12335 151.00832 10728 ft 278 kts 206°
2026-05-07 04:07 -34.14186 150.99910 11253 ft 293 kts 206°
2026-05-07 04:07 -34.16110 150.98952 11734 ft 309 kts 207°
2026-05-07 04:07 -34.18137 150.97945 12345 ft 321 kts 207°
2026-05-07 04:08 -34.20231 150.96907 13123 ft 327 kts 207°
2026-05-07 04:08 -34.22318 150.95874 13964 ft 331 kts 207°
2026-05-07 04:08 -34.24486 150.94795 14641 ft 340 kts 208°
2026-05-07 04:08 -34.26703 150.93694 15485 ft 345 kts 208°
2026-05-07 04:09 -34.28928 150.92583 16189 ft 352 kts 209°
2026-05-07 04:09 -34.31216 150.91440 16990 ft 357 kts 209°
2026-05-07 04:09 -34.33527 150.90286 17679 ft 364 kts 210°
2026-05-07 04:09 -34.35858 150.89122 18344 ft 370 kts 210°
2026-05-07 04:10 -34.38260 150.87924 19213 ft 371 kts 209°
2026-05-07 04:10 -34.40648 150.86734 19893 ft 375 kts 210°
2026-05-07 04:10 -34.43080 150.85518 20461 ft 382 kts 210°
2026-05-07 04:10 -34.45547 150.84282 21054 ft 387 kts 210°
2026-05-07 04:11 -34.48045 150.83032 21694 ft 390 kts 210°
2026-05-07 04:11 -34.50552 150.81775 21973 ft 393 kts 210°
2026-05-07 04:11 -34.53066 150.80400 21992 ft 388 kts 216°
2026-05-07 04:11 -34.55304 150.78674 21999 ft 376 kts 225°
2026-05-07 04:12 -34.57187 150.76575 22003 ft 369 kts 233°
2026-05-07 04:12 -34.58838 150.74216 21994 ft 363 kts 238°
2026-05-07 04:12 -34.60365 150.71779 21998 ft 361 kts 239°
2026-05-07 04:12 -34.61849 150.69313 21992 ft 361 kts 239°
2026-05-07 04:13 -34.63299 150.66870 22007 ft 360 kts 239°
2026-05-07 04:13 -34.64764 150.64403 21996 ft 363 kts 239°
2026-05-07 04:13 -34.66255 150.61891 21997 ft 362 kts 239°
2026-05-07 04:13 -34.67726 150.59425 21991 ft 361 kts 238°
2026-05-07 04:14 -34.69207 150.56952 22006 ft 359 kts 238°
2026-05-07 04:14 -34.70668 150.54515 21989 ft 361 kts 238°
2026-05-07 04:14 -34.72146 150.52049 22007 ft 362 kts 238°
2026-05-07 04:14 -34.73628 150.49576 21998 ft 362 kts 238°
2026-05-07 04:15 -34.75114 150.47096 21991 ft 358 kts 237°
2026-05-07 04:15 -34.76562 150.44676 22002 ft 358 kts 237°
2026-05-07 04:15 -34.78035 150.42217 22005 ft 359 kts 237°
2026-05-07 04:15 -34.79496 150.39772 22010 ft 358 kts 237°
2026-05-07 04:16 -34.80957 150.37323 21998 ft 360 kts 236°
2026-05-07 04:16 -34.82444 150.34833 21998 ft 359 kts 237°
2026-05-07 04:16 -34.83907 150.32379 22024 ft 360 kts 236°
2026-05-07 04:16 -34.85366 150.29930 21995 ft 359 kts 236°
2026-05-07 04:17 -34.86833 150.27470 22004 ft 358 kts 236°
2026-05-07 04:17 -34.88281 150.25037 21997 ft 359 kts 237°
2026-05-07 04:17 -34.89745 150.22574 22016 ft 361 kts 235°
2026-05-07 04:17 -34.91221 150.20093 22002 ft 360 kts 235°
2026-05-07 04:18 -34.92698 150.17607 22006 ft 359 kts 235°
2026-05-07 04:18 -34.94162 150.15146 22011 ft 360 kts 235°
2026-05-07 04:18 -34.95612 150.12703 22001 ft 359 kts 234°
2026-05-07 04:18 -34.97094 150.10205 22012 ft 360 kts 234°
2026-05-07 04:19 -34.98544 150.07758 22019 ft 359 kts 235°
2026-05-07 04:19 -35.00015 150.05273 22025 ft 360 kts 234°
2026-05-07 04:19 -35.01480 150.02797 22004 ft 361 kts 234°
2026-05-07 04:19 -35.02938 150.00336 22011 ft 360 kts 234°
2026-05-07 04:20 -35.04410 149.97849 22013 ft 361 kts 234°
2026-05-07 04:20 -35.05914 149.95444 22011 ft 348 kts 230°
2026-05-07 04:20 -35.07483 149.93269 21986 ft 338 kts 227°
2026-05-07 04:21 -35.10648 149.89243 21375 ft 325 kts 226°
2026-05-07 04:21 -35.12220 149.87264 20879 ft 324 kts 226°
2026-05-07 04:21 -35.13766 149.85301 20377 ft 323 kts 226°
2026-05-07 04:21 -35.15324 149.83310 19844 ft 322 kts 226°
2026-05-07 04:22 -35.16857 149.81342 19332 ft 321 kts 226°
2026-05-07 04:22 -35.18378 149.79379 18779 ft 321 kts 226°
2026-05-07 04:22 -35.19919 149.77383 18208 ft 318 kts 226°
2026-05-07 04:22 -35.21414 149.75442 17699 ft 315 kts 226°
2026-05-07 04:23 -35.22909 149.73503 17167 ft 312 kts 226°
2026-05-07 04:23 -35.24393 149.71579 16665 ft 309 kts 225°
2026-05-07 04:23 -35.25853 149.69684 16140 ft 307 kts 226°
2026-05-07 04:23 -35.27311 149.67789 15622 ft 305 kts 226°
2026-05-07 04:24 -35.28748 149.65916 15113 ft 303 kts 226°
2026-05-07 04:24 -35.30192 149.64033 14587 ft 301 kts 226°
2026-05-07 04:24 -35.31605 149.62187 14057 ft 300 kts 226°
2026-05-07 04:24 -35.33031 149.60324 13520 ft 299 kts 226°
2026-05-07 04:25 -35.34447 149.58475 12992 ft 297 kts 226°
2026-05-07 04:25 -35.35860 149.56635 12450 ft 297 kts 226°
2026-05-07 04:25 -35.37264 149.54803 11925 ft 296 kts 226°
2026-05-07 04:25 -35.38679 149.52954 11382 ft 296 kts 225°
2026-05-07 04:26 -35.40067 149.51141 10858 ft 295 kts 226°
2026-05-07 04:26 -35.41478 149.49301 10484 ft 289 kts 225°
2026-05-07 04:26 -35.42831 149.47534 10322 ft 277 kts 225°
2026-05-07 04:26 -35.44104 149.45865 10206 ft 265 kts 226°
2026-05-07 04:27 -35.45340 149.44238 10047 ft 256 kts 226°
2026-05-07 04:27 -35.46559 149.42642 9674 ft 255 kts 225°
2026-05-07 04:27 -35.47771 149.41061 9227 ft 255 kts 225°
2026-05-07 04:27 -35.48970 149.39496 8866 ft 248 kts 226°
2026-05-07 04:28 -35.50129 149.37978 8501 ft 243 kts 226°
2026-05-07 04:28 -35.51257 149.36496 8155 ft 234 kts 226°
2026-05-07 04:28 -35.52363 149.35042 7776 ft 228 kts 226°
2026-05-07 04:28 -35.53433 149.33637 7447 ft 225 kts 227°
2026-05-07 04:29 -35.54493 149.32230 7095 ft 224 kts 228°
2026-05-07 04:29 -35.55339 149.30655 6778 ft 223 kts 247°
2026-05-07 04:29 -35.55645 149.28819 6616 ft 217 kts 261°
2026-05-07 04:29 -35.55774 149.27026 6548 ft 205 kts 260°
2026-05-07 04:30 -35.55927 149.25346 6482 ft 192 kts 258°
2026-05-07 04:30 -35.56092 149.23804 6405 ft 170 kts 258°
2026-05-07 04:30 -35.56078 149.22403 6345 ft 169 kts 277°
2026-05-07 04:30 -35.55521 149.21094 6255 ft 175 kts 304°
2026-05-07 04:31 -35.54553 149.20149 6068 ft 181 kts 323°
2026-05-07 04:31 -35.53388 149.19525 5883 ft 185 kts 334°
2026-05-07 04:31 -35.52099 149.19295 5710 ft 190 kts 356°
2026-05-07 04:31 -35.50773 149.19376 5526 ft 191 kts 357°
2026-05-07 04:32 -35.49484 149.19424 5418 ft 173 kts 354°
2026-05-07 04:32 -35.48274 149.19409 5187 ft 173 kts 352°
2026-05-07 04:32 -35.47094 149.19397 4883 ft 166 kts 354°
2026-05-07 04:32 -35.45953 149.19353 4978 ft 166 kts 350°
2026-05-07 04:33 -35.44785 149.19307 4971 ft 169 kts 353°
2026-05-07 04:33 -35.43599 149.19321 4974 ft 169 kts 355°
2026-05-07 04:33 -35.42419 149.19351 4952 ft 171 kts 354°
2026-05-07 04:33 -35.41220 149.19367 4672 ft 169 kts 353°
2026-05-07 04:34 -35.40050 149.19347 4320 ft 167 kts 353°
2026-05-07 04:34 -35.38897 149.19305 3943 ft 164 kts 351°
2026-05-07 04:34 -35.37757 149.19235 3619 ft 162 kts 351°
2026-05-07 04:34 -35.36644 149.19194 3547 ft 155 kts 354°
2026-05-07 04:35 -35.35542 149.19257 4000 ft 162 kts 356°
2026-05-07 04:35 -35.34409 149.19321 4323 ft 167 kts 356°
2026-05-07 04:35 -35.33222 149.19446 4019 ft 174 kts
2026-05-07 04:35 -35.32034 149.19478 3567 ft 167 kts 343°
2026-05-07 04:36 -35.30896 149.19218 3119 ft 168 kts 352°
2026-05-07 04:36 -35.29714 149.19388 3295 ft 171 kts
2026-05-07 04:36 -35.28657 149.19571 4195 ft 154 kts
2026-05-07 04:36 -35.27486 149.19745 4505 ft 185 kts
2026-05-07 04:37 -35.26041 149.19769 4674 ft 232 kts 351°
2026-05-07 04:37 -35.24303 149.19661 5103 ft 264 kts 353°
2026-05-07 04:37 -35.22428 149.19568 5129 ft 275 kts 355°
2026-05-07 04:37 -35.20526 149.19807 5303 ft 274 kts 11°
2026-05-07 04:38 -35.18782 149.20763 5268 ft 283 kts 36°
2026-05-07 04:38 -35.17494 149.22578 5246 ft 286 kts 63°
2026-05-07 04:38 -35.16959 149.24924 5241 ft 284 kts 91°
2026-05-07 04:38 -35.17296 149.27223 5290 ft 270 kts 119°
2026-05-07 04:39 -35.18350 149.28944 5381 ft 239 kts 149°
2026-05-07 04:39 -35.19775 149.29726 5416 ft 213 kts 175°
2026-05-07 04:39 -35.21221 149.29927 5423 ft 208 kts 180°
2026-05-07 04:39 -35.22654 149.30058 5412 ft 207 kts 181°
2026-05-07 04:40 -35.24099 149.30188 5417 ft 207 kts 180°
2026-05-07 04:40 -35.25547 149.30316 5418 ft 207 kts 181°
2026-05-07 04:40 -35.26970 149.30446 5408 ft 206 kts 181°
2026-05-07 04:40 -35.28406 149.30580 5417 ft 207 kts 181°
2026-05-07 04:41 -35.29861 149.30711 5416 ft 206 kts 181°
2026-05-07 04:41 -35.31298 149.30841 5424 ft 207 kts 180°
2026-05-07 04:41 -35.32741 149.30971 5420 ft 206 kts 181°
2026-05-07 04:41 -35.34166 149.31102 5422 ft 206 kts 181°
2026-05-07 04:42 -35.35609 149.31233 5424 ft 207 kts 181°
2026-05-07 04:42 -35.37054 149.31363 5429 ft 207 kts 181°
2026-05-07 04:42 -35.38489 149.31497 5424 ft 206 kts 180°
2026-05-07 04:42 -35.39923 149.31632 5415 ft 205 kts 181°
2026-05-07 04:43 -35.41347 149.31764 5409 ft 207 kts 181°
2026-05-07 04:43 -35.42784 149.31897 5408 ft 204 kts 181°
2026-05-07 04:43 -35.44193 149.32033 5403 ft 204 kts 180°
2026-05-07 04:43 -35.45623 149.32170 5395 ft 205 kts 180°
2026-05-07 04:44 -35.47041 149.32303 5392 ft 204 kts 181°
2026-05-07 04:44 -35.48463 149.32445 5392 ft 206 kts 180°
2026-05-07 04:44 -35.49876 149.32584 5387 ft 203 kts 181°
2026-05-07 04:44 -35.51301 149.32724 5389 ft 205 kts 180°
2026-05-07 04:45 -35.52732 149.32857 5374 ft 204 kts 181°
2026-05-07 04:45 -35.54134 149.32987 5374 ft 204 kts 181°
2026-05-07 04:45 -35.55542 149.32974 5370 ft 200 kts 198°
2026-05-07 04:45 -35.56715 149.32155 5374 ft 194 kts 230°
2026-05-07 04:46 -35.57243 149.30643 5377 ft 200 kts 263°
2026-05-07 04:46 -35.56939 149.28969 5378 ft 209 kts 293°
2026-05-07 04:46 -35.56120 149.27469 5378 ft 213 kts 301°
2026-05-07 04:46 -35.55293 149.25986 5371 ft 209 kts 292°
2026-05-07 04:47 -35.54919 149.24327 5385 ft 201 kts 265°
2026-05-07 04:47 -35.54936 149.22601 5377 ft 205 kts 274°
2026-05-07 04:47 -35.54566 149.20926 5387 ft 205 kts 285°
2026-05-07 04:47 -35.53927 149.19336 5371 ft 206 kts 304°
2026-05-07 04:48 -35.52758 149.18372 5401 ft 207 kts 339°
2026-05-07 04:48 -35.51305 149.18390 5391 ft 217 kts 15°
2026-05-07 04:48 -35.49922 149.19145 5394 ft 216 kts 18°
2026-05-07 04:48 -35.48483 149.19510 5352 ft 204 kts 358°
2026-05-07 04:49 -35.47075 149.19476 5000 ft 199 kts 352°
2026-05-07 04:49 -35.45721 149.19428 4719 ft 189 kts 354°
2026-05-07 04:49 -35.44416 149.19441 4482 ft 189 kts 355°
2026-05-07 04:49 -35.43109 149.19449 4190 ft 186 kts 354°
2026-05-07 04:50 -35.41812 149.19438 3952 ft 186 kts 352°
2026-05-07 04:50 -35.40536 149.19438 3724 ft 177 kts 355°
2026-05-07 04:50 -35.39323 149.19455 3417 ft 169 kts 353°
2026-05-07 04:50 -35.38188 149.19446 3214 ft 160 kts 353°
2026-05-07 04:51 -35.37065 149.19438 3003 ft 162 kts 353°
2026-05-07 04:51 -35.35939 149.19455 2771 ft 159 kts 354°
2026-05-07 04:51 -35.34815 149.19440 2622 ft 163 kts 353°
2026-05-07 04:51 -35.33679 149.19426 2393 ft 165 kts 354°
2026-05-07 04:52 -35.32537 149.19438 2129 ft 161 kts 355°
2026-05-07 04:52 -35.31437 149.19449 1904 ft 151 kts 356°
2026-05-07 04:52 -35.30540 149.19444 1878 ft 90 kts
2026-05-07 04:52 -35.30174 149.19446 1880 ft 15 kts 359°
2026-05-07 04:53 -35.30168 149.19428 1879 ft 6 kts 239°
2026-05-07 04:53 -35.30159 149.19315 1875 ft 15 kts 285°
2026-05-07 04:53 -35.30220 149.19235 1874 ft 14 kts 177°
2026-05-07 04:53 -35.30320 149.19238 1874 ft 14 kts 181°
2026-05-07 04:54 -35.30419 149.19240 1874 ft 13 kts 180°
2026-05-07 04:54 -35.30513 149.19238 1874 ft 13 kts 178°
2026-05-07 04:54 -35.30605 149.19238 1874 ft 12 kts 182°
2026-05-07 04:54 -35.30638 149.19170 1872 ft 8 kts 275°
2026-05-07 04:55 -35.30668 149.19110 1871 ft 4 kts 230°
2026-05-07 04:55 -35.30677 149.19098 1871 ft 0 kts 230°